Location: *
(24.1434°N, 56.8729°E)
Time: 07:22:47
(UTC+00:00)

Palapa 6 Rocket - Pass Details

Date: 09 April 2020
Orbit: 485 x 1217 km, 22.7° (Epoch: 25 May)

Event Time Altitude Azimuth Distance (km) Brightness Sun altitude
Exits shadow 23:54:23 28° 102° (ESE) 935 4.4 -27.3°
Drops below altitude 10° 23:56:23 10° 97° (E) 1,705 6.1 -26.9°
Sets 23:58:42 0° 95° (E) 2,649 7.3 -26.4°
